When you browse on this site, cookies collect data to enhance your experience and personalize the content and advertising you see.
Visit our Privacy Policy to learn more. By continuing to use the site, you agree to this use of cookies and data.
  • In Czech Republic
  • List of Countries
  • For 7 days
  • Water Temperature
  • Weather Map
  • Weather Widgets
  • user-avatar
    Login

    Hourly Weather Astrea

    Today, 30 May, Saturday

    Time Temperature Precipitation Wind Pressure Humidity
    00:00 +26°C° 0.2 mm 1 mps 751 mmHg 96%
    01:00 +26°C° 0.2 mm 1 mps 751 mmHg 96%
    02:00 +25°C° 0.2 mm 1 mps 750 mmHg 96%
    03:00 +23°C° 0.2 mm 0 mps 750 mmHg 96%
    04:00 +23°C° 0.2 mm 0 mps 750 mmHg 96%
    05:00 +24°C° 0.8 mm 0 mps 750 mmHg 96%
    06:00 +24°C° 0.8 mm 0 mps 751 mmHg 96%
    07:00 +24°C° 0.8 mm 0 mps 751 mmHg 96%
    08:00 +27°C° 0.2 mm 1 mps 751 mmHg 93%
    09:00 +27°C° 0.2 mm 1 mps 751 mmHg 90%
    10:00 +28°C° 0.2 mm 1 mps 751 mmHg 88%
    11:00 +29°C° 0.2 mm 1 mps 751 mmHg 83%
    12:00 +30°C° 0.2 mm 1 mps 750 mmHg 77%
    13:00 +32°C° 0.2 mm 1 mps 750 mmHg 72%
    14:00 +31°C° 0.3 mm 1 mps 749 mmHg 74%
    15:00 +31°C° 0.3 mm 1 mps 749 mmHg 75%
    16:00 +31°C° 0.3 mm 1 mps 748 mmHg 77%
    17:00 +28°C° 0.3 mm 0 mps 748 mmHg 81%
    18:00 +27°C° 0.3 mm 0 mps 749 mmHg 86%
    19:00 +25°C° 0.3 mm 0 mps 749 mmHg 90%
    20:00 +25°C° 0.8 mm 0 mps 750 mmHg 91%
    21:00 +27°C° 0.8 mm 1 mps 751 mmHg 93%
    22:00 +26°C° 0.8 mm 1 mps 751 mmHg 94%
    23:00 +26°C° 1.4 mm 1 mps 751 mmHg 95%

    Tomorrow, 31 May, Sunday

    Time Temperature Precipitation Wind Pressure Humidity
    00:00 +26°C° 1.4 mm 1 mps 751 mmHg 96%
    01:00 +26°C° 1.4 mm 1 mps 750 mmHg 97%
    02:00 +25°C° 1.2 mm 1 mps 750 mmHg 97%
    03:00 +23°C° 1.2 mm 0 mps 750 mmHg 97%
    04:00 +23°C° 1.2 mm 0 mps 750 mmHg 97%
    05:00 +23°C° 1.3 mm 0 mps 750 mmHg 97%
    06:00 +24°C° 1.3 mm 0 mps 751 mmHg 97%
    07:00 +24°C° 1.3 mm 0 mps 751 mmHg 97%
    08:00 +27°C° 1.4 mm 1 mps 752 mmHg 95%
    09:00 +28°C° 1.4 mm 1 mps 752 mmHg 92%
    10:00 +29°C° 1.4 mm 1 mps 752 mmHg 90%
    11:00 +29°C° 1.4 mm 1 mps 752 mmHg 88%
    12:00 +30°C° 1.4 mm 1 mps 751 mmHg 86%
    13:00 +30°C° 1.4 mm 1 mps 751 mmHg 84%
    14:00 +30°C° 0.8 mm 2 mps 750 mmHg 85%
    15:00 +30°C° 0.8 mm 2 mps 750 mmHg 86%
    16:00 +30°C° 0.8 mm 2 mps 749 mmHg 87%
    17:00 +29°C° 0.9 mm 2 mps 749 mmHg 89%
    18:00 +28°C° 0.9 mm 1 mps 750 mmHg 92%
    19:00 +27°C° 0.9 mm 1 mps 750 mmHg 94%
    20:00 +27°C° 0.6 mm 1 mps 751 mmHg 94%
    21:00 +26°C° 0.6 mm 1 mps 751 mmHg 95%
    22:00 +26°C° 0.6 mm 1 mps 752 mmHg 95%
    23:00 +26°C° 1.7 mm 1 mps 751 mmHg 96%

    Day after tomorrow, 1 June, Monday

    Time Temperature Precipitation Wind Pressure Humidity
    00:00 +26°C° 1.7 mm 1 mps 751 mmHg 97%
    01:00 +25°C° 1.7 mm 1 mps 750 mmHg 97%
    02:00 +25°C° 0.6 mm 1 mps 750 mmHg 98%
    03:00 +25°C° 0.6 mm 1 mps 750 mmHg 98%
    04:00 +25°C° 0.6 mm 1 mps 750 mmHg 98%
    05:00 +25°C° 0.1 mm 1 mps 751 mmHg 98%
    06:00 +25°C° 0.1 mm 1 mps 751 mmHg 98%
    07:00 +26°C° 0.1 mm 1 mps 751 mmHg 98%
    08:00 +26°C° 0.1 mm 1 mps 752 mmHg 96%
    09:00 +27°C° 0.1 mm 1 mps 752 mmHg 95%
    10:00 +27°C° 0.1 mm 1 mps 752 mmHg 93%
    11:00 +28°C° 0.1 mm 1 mps 752 mmHg 89%
    12:00 +29°C° 0.1 mm 1 mps 751 mmHg 85%
    13:00 +29°C° 0.1 mm 1 mps 750 mmHg 80%
    14:00 +30°C° 0.1 mm 1 mps 750 mmHg 80%
    15:00 +30°C° 0.1 mm 1 mps 749 mmHg 79%
    16:00 +30°C° 0.1 mm 1 mps 749 mmHg 78%
    17:00 +27°C° 1.3 mm 0 mps 749 mmHg 83%
    18:00 +26°C° 1.3 mm 0 mps 750 mmHg 88%
    19:00 +25°C° 1.3 mm 0 mps 750 mmHg 93%
    20:00 +24°C° 0.7 mm 0 mps 751 mmHg 94%
    21:00 +24°C° 0.7 mm 0 mps 751 mmHg 95%
    22:00 +24°C° 0.7 mm 0 mps 752 mmHg 96%
    23:00 +24°C° 0.4 mm 0 mps 751 mmHg 96%

    2 June, Tuesday

    Time Temperature Precipitation Wind Pressure Humidity
    00:00 +23°C° 0.4 mm 0 mps 751 mmHg 96%
    01:00 +23°C° 0.4 mm 0 mps 751 mmHg 96%
    02:00 +23°C° 0.6 mm 0 mps 750 mmHg 96%
    03:00 +23°C° 0.6 mm 0 mps 750 mmHg 96%
    04:00 +23°C° 0.6 mm 0 mps 750 mmHg 97%
    05:00 +23°C° 0.2 mm 0 mps 751 mmHg 96%
    06:00 +23°C° 0.2 mm 0 mps 751 mmHg 96%
    07:00 +24°C° 0.2 mm 0 mps 751 mmHg 96%
    08:00 +25°C° 0 mm 0 mps 752 mmHg 92%
    09:00 +26°C° 0 mm 0 mps 752 mmHg 89%
    10:00 +27°C° 0 mm 0 mps 752 mmHg 85%
    11:00 +28°C° 0.1 mm 0 mps 751 mmHg 83%
    12:00 +28°C° 0.1 mm 0 mps 751 mmHg 81%
    13:00 +31°C° 0.1 mm 1 mps 750 mmHg 79%
    14:00 +30°C° 0.9 mm 1 mps 749 mmHg 81%
    15:00 +30°C° 0.9 mm 1 mps 749 mmHg 84%
    16:00 +30°C° 0.9 mm 1 mps 749 mmHg 86%
    17:00 +29°C° 1.1 mm 1 mps 749 mmHg 88%
    18:00 +28°C° 1.1 mm 1 mps 749 mmHg 90%
    19:00 +27°C° 1.1 mm 1 mps 749 mmHg 93%
    20:00 +27°C° 1.5 mm 1 mps 750 mmHg 94%
    21:00 +26°C° 1.5 mm 1 mps 751 mmHg 95%
    22:00 +26°C° 1.5 mm 1 mps 751 mmHg 96%
    23:00 +26°C° 1.2 mm 1 mps 751 mmHg 97%

    3 June, Wednesday

    Time Temperature Precipitation Wind Pressure Humidity
    00:00 +26°C° 1.2 mm 1 mps 750 mmHg 97%
    01:00 +26°C° 1.2 mm 1 mps 750 mmHg 97%
    02:00 +25°C° 0.2 mm 1 mps 750 mmHg 98%
    03:00 +23°C° 0.2 mm 0 mps 750 mmHg 98%
    04:00 +23°C° 0.2 mm 0 mps 750 mmHg 98%
    05:00 +23°C° 0 mm 0 mps 750 mmHg 98%
    06:00 +24°C° 0 mm 0 mps 750 mmHg 98%
    07:00 +24°C° 0 mm 0 mps 751 mmHg 98%
    08:00 +27°C° 0.2 mm 1 mps 751 mmHg 94%
    09:00 +28°C° 0.2 mm 1 mps 751 mmHg 91%
    10:00 +29°C° 0.2 mm 1 mps 751 mmHg 87%
    11:00 +29°C° 0.4 mm 1 mps 750 mmHg 83%
    12:00 +30°C° 0.4 mm 1 mps 750 mmHg 80%
    13:00 +31°C° 0.4 mm 1 mps 749 mmHg 76%
    14:00 +31°C° 0.8 mm 1 mps 749 mmHg 78%
    15:00 +30°C° 0.8 mm 1 mps 749 mmHg 81%
    16:00 +30°C° 0.8 mm 1 mps 748 mmHg 83%
    17:00 +29°C° 0.5 mm 1 mps 749 mmHg 86%
    18:00 +28°C° 0.5 mm 1 mps 749 mmHg 90%
    19:00 +25°C° 0.5 mm 0 mps 750 mmHg 93%
    20:00 +27°C° 0.5 mm 1 mps 750 mmHg 93%
    21:00 +26°C° 0.5 mm 1 mps 751 mmHg 94%
    22:00 +26°C° 0.5 mm 1 mps 751 mmHg 95%
    23:00 +26°C° 0.8 mm 1 mps 751 mmHg 95%

    4 June, Thursday

    Time Temperature Precipitation Wind Pressure Humidity
    00:00 +26°C° 0.8 mm 1 mps 750 mmHg 96%
    01:00 +25°C° 0.8 mm 1 mps 750 mmHg 97%
    02:00 +25°C° 0.3 mm 1 mps 750 mmHg 97%
    03:00 +25°C° 0.3 mm 1 mps 750 mmHg 98%
    04:00 +25°C° 0.3 mm 1 mps 750 mmHg 98%
    05:00 +25°C° 0 mm 1 mps 750 mmHg 98%
    06:00 +25°C° 0 mm 1 mps 750 mmHg 98%
    07:00 +25°C° 0 mm 1 mps 751 mmHg 97%
    08:00 +27°C° 0 mm 1 mps 751 mmHg 91%
    09:00 +28°C° 0 mm 1 mps 751 mmHg 84%
    10:00 +30°C° 0 mm 1 mps 751 mmHg 78%
    11:00 +31°C° 0 mm 1 mps 750 mmHg 73%
    12:00 +32°C° 0 mm 1 mps 749 mmHg 69%
    13:00 +33°C° 0 mm 1 mps 749 mmHg 65%
    14:00 +33°C° 0.1 mm 1 mps 748 mmHg 69%
    15:00 +32°C° 0.1 mm 1 mps 748 mmHg 74%
    16:00 +31°C° 0.1 mm 2 mps 747 mmHg 78%
    17:00 +30°C° 0.9 mm 2 mps 748 mmHg 83%
    18:00 +29°C° 0.9 mm 2 mps 748 mmHg 87%
    19:00 +27°C° 0.9 mm 2 mps 749 mmHg 92%
    20:00 +27°C° 0 mm 1 mps 749 mmHg 93%
    21:00 +26°C° 0 mm 1 mps 749 mmHg 94%
    22:00 +26°C° 0 mm 1 mps 750 mmHg 95%
    23:00 +24°C° 0 mm 0 mps 750 mmHg 95%
    Show more